contact:dominique.lefevre@mio.osupytheas.fr, maurice.libes@osupytheas.fr, didier.mallarino@osupytheas.fr
Project:EMSO http://www.emso-fr.org/EMSO-France
Depth: 2436.0 m
Title:EMSO Ligure Ouest : Data MII capteur MICROCAT
DateTime_Computer,Latitude,Longitude,Temperature,Conductivity,Pressure,DateTime_Instrument
DateTime_Computer,Latitude,Longitude,degC,S m-1,dbar,DateTime_Instrument
2022-03-02T00:00:54Z,42.805,6.029,13.3004,4.60062,2470.343,2022-3-02T02:02:28Z
2022-03-02T00:03:57Z,42.805,6.029,13.3008,4.60049,2470.38,2022-3-02T02:05:31Z
2022-03-02T00:07:00Z,42.805,6.029,13.3004,4.60064,2470.39,2022-3-02T02:08:35Z
2022-03-02T00:10:03Z,42.805,6.029,13.3007,4.60062,2470.38,2022-3-02T02:11:38Z
2022-03-02T00:13:06Z,42.805,6.029,13.3048,4.60064,2470.343,2022-3-02T02:14:41Z
2022-03-02T00:16:09Z,42.805,6.029,13.3045,4.60082,2470.357,2022-3-02T02:17:44Z
2022-03-02T00:19:12Z,42.805,6.029,13.3067,4.60074,2470.38,2022-3-02T02:20:47Z
2022-03-02T00:22:15Z,42.805,6.029,13.3000,4.60061,2470.357,2022-3-02T02:23:50Z
2022-03-02T00:25:18Z,42.805,6.029,13.2998,4.60086,2470.343,2022-3-02T02:26:53Z
2022-03-02T00:28:22Z,42.805,6.029,13.3015,4.60056,2470.357,2022-3-02T02:29:56Z
2022-03-02T00:31:25Z,42.805,6.029,13.2998,4.60054,2470.366,2022-3-02T02:32:59Z
2022-03-02T00:34:28Z,42.805,6.029,13.2996,4.60058,2470.38,2022-3-02T02:36:03Z
2022-03-02T00:37:31Z,42.805,6.029,13.2997,4.60049,2470.297,2022-3-02T02:39:06Z
2022-03-02T00:40:34Z,42.805,6.029,13.2999,4.60052,2470.39,2022-3-02T02:42:09Z
2022-03-02T00:43:37Z,42.805,6.029,13.3000,4.60052,2470.357,2022-3-02T02:45:12Z
2022-03-02T00:46:40Z,42.805,6.029,13.3001,4.60041,2470.343,2022-3-02T02:48:15Z
2022-03-02T00:49:43Z,42.805,6.029,13.2998,4.60040,2470.343,2022-3-02T02:51:18Z
2022-03-02T00:52:47Z,42.805,6.029,13.3000,4.60035,2470.343,2022-3-02T02:54:21Z
2022-03-02T00:55:50Z,42.805,6.029,13.2997,4.60035,2470.366,2022-3-02T02:57:24Z
2022-03-02T00:58:53Z,42.805,6.029,13.3002,4.60036,2470.357,2022-3-02T03:00:28Z
2022-03-02T01:01:56Z,42.805,6.029,13.2998,4.60035,2470.343,2022-3-02T03:03:31Z
2022-03-02T01:04:59Z,42.805,6.029,13.3000,4.60041,2470.343,2022-3-02T03:06:34Z
2022-03-02T01:08:02Z,42.805,6.029,13.2999,4.60042,2470.343,2022-3-02T03:09:37Z
2022-03-02T01:11:05Z,42.805,6.029,13.2998,4.60041,2470.366,2022-3-02T03:12:40Z
2022-03-02T01:14:08Z,42.805,6.029,13.3000,4.60049,2470.32,2022-3-02T03:15:43Z
2022-03-02T01:17:11Z,42.805,6.029,13.2999,4.60033,2470.343,2022-3-02T03:18:46Z
2022-03-02T01:20:15Z,42.805,6.029,13.2999,4.60039,2470.357,2022-3-02T03:21:49Z
2022-03-02T01:23:18Z,42.805,6.029,13.2996,4.60037,2470.334,2022-3-02T03:24:52Z
2022-03-02T01:26:21Z,42.805,6.029,13.2997,4.60041,2470.343,2022-3-02T03:27:56Z
2022-03-02T01:29:24Z,42.805,6.029,13.3000,4.60043,2470.343,2022-3-02T03:30:59Z
2022-03-02T01:32:27Z,42.805,6.029,13.3000,4.60044,2470.357,2022-3-02T03:34:02Z
2022-03-02T01:35:30Z,42.805,6.029,13.2998,4.60037,2470.343,2022-3-02T03:37:05Z
2022-03-02T01:38:33Z,42.805,6.029,13.2998,4.60034,2470.366,2022-3-02T03:40:08Z
2022-03-02T01:41:36Z,42.805,6.029,13.2999,4.60029,2470.297,2022-3-02T03:43:11Z
2022-03-02T01:44:40Z,42.805,6.029,13.2998,4.60039,2470.343,2022-3-02T03:46:14Z
2022-03-02T01:47:43Z,42.805,6.029,13.3000,4.60055,2470.366,2022-3-02T03:49:17Z
2022-03-02T01:50:46Z,42.805,6.029,13.2998,4.60044,2470.366,2022-3-02T03:52:21Z
2022-03-02T01:53:49Z,42.805,6.029,13.3001,4.60043,2470.343,2022-3-02T03:55:24Z
2022-03-02T01:56:52Z,42.805,6.029,13.2996,4.60046,2470.366,2022-3-02T03:58:27Z
2022-03-02T01:59:55Z,42.805,6.029,13.2998,4.60048,2470.343,2022-3-02T04:01:30Z
2022-03-02T02:02:58Z,42.805,6.029,13.2997,4.60049,2470.366,2022-3-02T04:04:33Z
2022-03-02T02:06:01Z,42.805,6.029,13.2999,4.60042,2470.38,2022-3-02T04:07:36Z
2022-03-02T02:09:04Z,42.805,6.029,13.3001,4.60049,2470.366,2022-3-02T04:10:39Z
2022-03-02T02:12:08Z,42.805,6.029,13.3002,4.60051,2470.32,2022-3-02T04:13:42Z
2022-03-02T02:15:11Z,42.805,6.029,13.3001,4.60057,2470.343,2022-3-02T04:16:45Z
2022-03-02T02:18:14Z,42.805,6.029,13.3000,4.60065,2470.343,2022-3-02T04:19:49Z
2022-03-02T02:21:17Z,42.805,6.029,13.3000,4.60056,2470.366,2022-3-02T04:22:52Z
2022-03-02T02:24:20Z,42.805,6.029,13.2998,4.60055,2470.39,2022-3-02T04:25:55Z
2022-03-02T02:27:23Z,42.805,6.029,13.2996,4.60046,2470.38,2022-3-02T04:28:58Z
2022-03-02T02:30:26Z,42.805,6.029,13.2995,4.60049,2470.343,2022-3-02T04:32:01Z
2022-03-02T02:33:29Z,42.805,6.029,13.2997,4.60052,2470.427,2022-3-02T04:35:04Z
2022-03-02T02:36:32Z,42.805,6.029,13.3003,4.60052,2470.343,2022-3-02T04:38:07Z
2022-03-02T02:39:36Z,42.805,6.029,13.3001,4.60051,2470.366,2022-3-02T04:41:10Z
2022-03-02T02:42:39Z,42.805,6.029,13.3002,4.60042,2470.366,2022-3-02T04:44:13Z
2022-03-02T02:45:42Z,42.805,6.029,13.2999,4.60034,2470.38,2022-3-02T04:47:17Z
2022-03-02T02:48:45Z,42.805,6.029,13.3004,4.60034,2470.38,2022-3-02T04:50:20Z
2022-03-02T02:51:48Z,42.805,6.029,13.3001,4.60040,2470.366,2022-3-02T04:53:23Z
2022-03-02T02:54:51Z,42.805,6.029,13.3003,4.60032,2470.404,2022-3-02T04:56:26Z
2022-03-02T02:57:54Z,42.805,6.029,13.2997,4.60029,2470.404,2022-3-02T04:59:29Z
2022-03-02T03:00:57Z,42.805,6.029,13.3003,4.60031,2470.38,2022-3-02T05:02:32Z
2022-03-02T03:04:01Z,42.805,6.029,13.3002,4.60039,2470.404,2022-3-02T05:05:35Z
2022-03-02T03:07:04Z,42.805,6.029,13.3001,4.60033,2470.413,2022-3-02T05:08:38Z
2022-03-02T03:10:07Z,42.805,6.029,13.3000,4.60057,2470.38,2022-3-02T05:11:42Z
2022-03-02T03:13:10Z,42.805,6.029,13.3000,4.60033,2470.39,2022-3-02T05:14:45Z
2022-03-02T03:16:13Z,42.805,6.029,13.3000,4.60046,2470.413,2022-3-02T05:17:48Z
2022-03-02T03:19:16Z,42.805,6.029,13.2998,4.60034,2470.404,2022-3-02T05:20:51Z
2022-03-02T03:22:19Z,42.805,6.029,13.3002,4.60039,2470.39,2022-3-02T05:23:54Z
2022-03-02T03:25:22Z,42.805,6.029,13.3000,4.60033,2470.39,2022-3-02T05:26:57Z
2022-03-02T03:28:26Z,42.805,6.029,13.3001,4.60033,2470.413,2022-3-02T05:30:00Z
2022-03-02T03:31:29Z,42.805,6.029,13.3001,4.60037,2470.404,2022-3-02T05:33:03Z
2022-03-02T03:34:32Z,42.805,6.029,13.3000,4.60032,2470.413,2022-3-02T05:36:07Z
2022-03-02T03:37:35Z,42.805,6.029,13.3000,4.60031,2470.437,2022-3-02T05:39:10Z
2022-03-02T03:40:38Z,42.805,6.029,13.3000,4.60032,2470.413,2022-3-02T05:42:13Z
2022-03-02T03:43:41Z,42.805,6.029,13.3005,4.60033,2470.474,2022-3-02T05:45:16Z
2022-03-02T03:46:44Z,42.805,6.029,13.2998,4.60039,2470.437,2022-3-02T05:48:19Z
2022-03-02T03:49:47Z,42.805,6.029,13.3002,4.60035,2470.45,2022-3-02T05:51:22Z
2022-03-02T03:52:50Z,42.805,6.029,13.2997,4.60032,2470.483,2022-3-02T05:54:25Z
2022-03-02T03:55:54Z,42.805,6.029,13.3001,4.60033,2470.474,2022-3-02T05:57:28Z
2022-03-02T03:58:57Z,42.805,6.029,13.2999,4.60033,2470.46,2022-3-02T06:00:31Z
2022-03-02T04:02:00Z,42.805,6.029,13.3002,4.60047,2470.437,2022-3-02T06:03:35Z
2022-03-02T04:05:03Z,42.805,6.029,13.2998,4.60034,2470.474,2022-3-02T06:06:38Z
2022-03-02T04:08:06Z,42.805,6.029,13.3000,4.60036,2470.46,2022-3-02T06:09:41Z
2022-03-02T04:11:09Z,42.805,6.029,13.3000,4.60033,2470.46,2022-3-02T06:12:44Z
2022-03-02T04:14:12Z,42.805,6.029,13.3000,4.60037,2470.46,2022-3-02T06:15:47Z
2022-03-02T04:17:15Z,42.805,6.029,13.3000,4.60033,2470.497,2022-3-02T06:18:50Z
2022-03-02T04:20:19Z,42.805,6.029,13.2998,4.60031,2470.483,2022-3-02T06:21:53Z
2022-03-02T04:23:22Z,42.805,6.029,13.2998,4.60032,2470.474,2022-3-02T06:24:56Z
2022-03-02T04:26:25Z,42.805,6.029,13.3000,4.60037,2470.483,2022-3-02T06:28:00Z
2022-03-02T04:29:28Z,42.805,6.029,13.2998,4.60029,2470.497,2022-3-02T06:31:03Z
2022-03-02T04:32:31Z,42.805,6.029,13.2999,4.60029,2470.507,2022-3-02T06:34:06Z
2022-03-02T04:35:34Z,42.805,6.029,13.2999,4.60031,2470.507,2022-3-02T06:37:09Z
2022-03-02T04:38:37Z,42.805,6.029,13.2999,4.60031,2470.497,2022-3-02T06:40:12Z
2022-03-02T04:41:40Z,42.805,6.029,13.3002,4.60031,2470.497,2022-3-02T06:43:15Z
2022-03-02T04:44:43Z,42.805,6.029,13.2997,4.60029,2470.507,2022-3-02T06:46:18Z
2022-03-02T04:47:47Z,42.805,6.029,13.3000,4.60038,2470.53,2022-3-02T06:49:21Z
2022-03-02T04:50:50Z,42.805,6.029,13.2996,4.60033,2470.544,2022-3-02T06:52:24Z
2022-03-02T04:53:53Z,42.805,6.029,13.2997,4.60033,2470.544,2022-3-02T06:55:28Z
2022-03-02T04:56:56Z,42.805,6.029,13.3000,4.60033,2470.53,2022-3-02T06:58:31Z
2022-03-02T04:59:59Z,42.805,6.029,13.3000,4.60037,2470.53,2022-3-02T07:01:34Z
2022-03-02T05:03:02Z,42.805,6.029,13.2999,4.60038,2470.553,2022-3-02T07:04:37Z
2022-03-02T05:06:05Z,42.805,6.029,13.3001,4.60034,2470.53,2022-3-02T07:07:40Z
2022-03-02T05:09:08Z,42.805,6.029,13.3000,4.60031,2470.53,2022-3-02T07:10:43Z
2022-03-02T05:12:12Z,42.805,6.029,13.3001,4.60030,2470.507,2022-3-02T07:13:46Z
2022-03-02T05:15:15Z,42.805,6.029,13.3000,4.60031,2470.577,2022-3-02T07:16:49Z
2022-03-02T05:18:18Z,42.805,6.029,13.2997,4.60034,2470.53,2022-3-02T07:19:53Z
2022-03-02T05:21:21Z,42.805,6.029,13.3001,4.60029,2470.544,2022-3-02T07:22:56Z
2022-03-02T05:24:24Z,42.805,6.029,13.2996,4.60031,2470.567,2022-3-02T07:25:59Z
2022-03-02T05:27:27Z,42.805,6.029,13.2998,4.60031,2470.567,2022-3-02T07:29:02Z
2022-03-02T05:30:30Z,42.805,6.029,13.3002,4.60031,2470.563,2022-3-02T07:32:05Z
2022-03-02T05:33:33Z,42.805,6.029,13.2998,4.60034,2470.591,2022-3-02T07:35:08Z
2022-03-02T05:36:36Z,42.805,6.029,13.2999,4.60033,2470.577,2022-3-02T07:38:11Z
2022-03-02T05:39:40Z,42.805,6.029,13.3003,4.60031,2470.577,2022-3-02T07:41:14Z
2022-03-02T05:42:43Z,42.805,6.029,13.2997,4.60030,2470.6,2022-3-02T07:44:18Z
2022-03-02T05:45:46Z,42.805,6.029,13.2999,4.60031,2470.6,2022-3-02T07:47:21Z
2022-03-02T05:48:49Z,42.805,6.029,13.2998,4.60031,2470.614,2022-3-02T07:50:24Z
2022-03-02T05:51:52Z,42.805,6.029,13.3002,4.60030,2470.591,2022-3-02T07:53:27Z
2022-03-02T05:54:55Z,42.805,6.029,13.2997,4.60030,2470.591,2022-3-02T07:56:30Z
2022-03-02T05:57:58Z,42.805,6.029,13.3001,4.60034,2470.6,2022-3-02T07:59:33Z
2022-03-02T06:01:01Z,42.805,6.029,13.3000,4.60031,2470.6,2022-3-02T08:02:36Z
2022-03-02T06:04:05Z,42.805,6.029,13.3003,4.60033,2470.614,2022-3-02T08:05:39Z
2022-03-02T06:07:08Z,42.805,6.029,13.2998,4.60034,2470.6,2022-3-02T08:08:42Z
2022-03-02T06:10:11Z,42.805,6.029,13.3003,4.60032,2470.614,2022-3-02T08:11:46Z
2022-03-02T06:13:14Z,42.805,6.029,13.3000,4.60033,2470.6,2022-3-02T08:14:49Z
2022-03-02T06:16:17Z,42.805,6.029,13.2999,4.60033,2470.6,2022-3-02T08:17:52Z
2022-03-02T06:19:20Z,42.805,6.029,13.2999,4.60031,2470.646,2022-3-02T08:20:55Z
2022-03-02T06:22:23Z,42.805,6.029,13.3000,4.60031,2470.614,2022-3-02T08:23:58Z
2022-03-02T06:25:26Z,42.805,6.029,13.2999,4.60030,2470.614,2022-3-02T08:27:01Z
2022-03-02T06:28:29Z,42.805,6.029,13.2999,4.60029,2470.6,2022-3-02T08:30:04Z
2022-03-02T06:31:33Z,42.805,6.029,13.2998,4.60031,2470.637,2022-3-02T08:33:07Z
2022-03-02T06:34:36Z,42.805,6.029,13.2998,4.60034,2470.614,2022-3-02T08:36:11Z
2022-03-02T06:37:39Z,42.805,6.029,13.3002,4.60031,2470.614,2022-3-02T08:39:14Z
2022-03-02T06:40:42Z,42.805,6.029,13.3000,4.60031,2470.6,2022-3-02T08:42:17Z
2022-03-02T06:43:45Z,42.805,6.029,13.2998,4.60032,2470.628,2022-3-02T08:45:20Z
2022-03-02T06:46:48Z,42.805,6.029,13.3000,4.60033,2470.624,2022-3-02T08:48:23Z
2022-03-02T06:49:51Z,42.805,6.029,13.3000,4.60036,2470.637,2022-3-02T08:51:26Z
2022-03-02T06:52:54Z,42.805,6.029,13.2999,4.60034,2470.67,2022-3-02T08:54:29Z
2022-03-02T06:55:58Z,42.805,6.029,13.3004,4.60033,2470.624,2022-3-02T08:57:32Z
2022-03-02T06:59:01Z,42.805,6.029,13.3000,4.60035,2470.637,2022-3-02T09:00:35Z
2022-03-02T07:02:04Z,42.805,6.029,13.2998,4.60035,2470.637,2022-3-02T09:03:39Z
2022-03-02T07:05:07Z,42.805,6.029,13.2998,4.60037,2470.624,2022-3-02T09:06:42Z
2022-03-02T07:08:10Z,42.805,6.029,13.2998,4.60031,2470.646,2022-3-02T09:09:45Z
2022-03-02T07:11:13Z,42.805,6.029,13.2998,4.60031,2470.661,2022-3-02T09:12:48Z
2022-03-02T07:14:16Z,42.805,6.029,13.2998,4.60032,2470.624,2022-3-02T09:15:51Z
2022-03-02T07:17:19Z,42.805,6.029,13.2995,4.60036,2470.646,2022-3-02T09:18:54Z
2022-03-02T07:20:22Z,42.805,6.029,13.3001,4.60036,2470.624,2022-3-02T09:21:57Z
2022-03-02T07:23:26Z,42.805,6.029,13.2996,4.60032,2470.6,2022-3-02T09:25:00Z
2022-03-02T07:26:29Z,42.805,6.029,13.3000,4.60031,2470.67,2022-3-02T09:28:04Z
2022-03-02T07:29:32Z,42.805,6.029,13.3000,4.60033,2470.646,2022-3-02T09:31:07Z
2022-03-02T07:32:35Z,42.805,6.029,13.3001,4.60038,2470.661,2022-3-02T09:34:10Z
2022-03-02T07:35:38Z,42.805,6.029,13.2999,4.60033,2470.67,2022-3-02T09:37:13Z
2022-03-02T07:38:41Z,42.805,6.029,13.2998,4.60033,2470.646,2022-3-02T09:40:16Z
2022-03-02T07:41:44Z,42.805,6.029,13.2999,4.60034,2470.646,2022-3-02T09:43:19Z
2022-03-02T07:44:47Z,42.805,6.029,13.3002,4.60037,2470.661,2022-3-02T09:46:22Z
2022-03-02T07:47:51Z,42.805,6.029,13.2997,4.60035,2470.646,2022-3-02T09:49:25Z
2022-03-02T07:50:54Z,42.805,6.029,13.3000,4.60036,2470.684,2022-3-02T09:52:28Z
2022-03-02T07:53:57Z,42.805,6.029,13.2999,4.60037,2470.646,2022-3-02T09:55:32Z
2022-03-02T07:57:00Z,42.805,6.029,13.2998,4.60036,2470.624,2022-3-02T09:58:35Z
2022-03-02T08:00:03Z,42.805,6.029,13.2997,4.60036,2470.661,2022-3-02T10:01:38Z
2022-03-02T08:03:06Z,42.805,6.029,13.2996,4.60033,2470.624,2022-3-02T10:04:41Z
2022-03-02T08:06:09Z,42.805,6.029,13.2999,4.60037,2470.646,2022-3-02T10:07:44Z
2022-03-02T08:09:12Z,42.805,6.029,13.3000,4.60035,2470.624,2022-3-02T10:10:47Z
2022-03-02T08:12:16Z,42.805,6.029,13.3000,4.60035,2470.614,2022-3-02T10:13:50Z
2022-03-02T08:15:19Z,42.805,6.029,13.2998,4.60036,2470.624,2022-3-02T10:16:53Z
2022-03-02T08:18:22Z,42.805,6.029,13.2999,4.60036,2470.624,2022-3-02T10:19:57Z
2022-03-02T08:21:25Z,42.805,6.029,13.3003,4.60038,2470.624,2022-3-02T10:23:00Z
2022-03-02T08:24:28Z,42.805,6.029,13.3000,4.60039,2470.624,2022-3-02T10:26:03Z
2022-03-02T08:27:31Z,42.805,6.029,13.2998,4.60046,2470.577,2022-3-02T10:29:06Z
2022-03-02T08:30:34Z,42.805,6.029,13.3004,4.60037,2470.614,2022-3-02T10:32:09Z
2022-03-02T08:33:37Z,42.805,6.029,13.3002,4.60041,2470.6,2022-3-02T10:35:12Z
2022-03-02T08:36:41Z,42.805,6.029,13.2998,4.60042,2470.624,2022-3-02T10:38:15Z
2022-03-02T08:39:44Z,42.805,6.029,13.2999,4.60038,2470.661,2022-3-02T10:41:18Z
2022-03-02T08:42:47Z,42.805,6.029,13.2999,4.60034,2470.646,2022-3-02T10:44:22Z
2022-03-02T08:45:50Z,42.805,6.029,13.2997,4.60032,2470.6,2022-3-02T10:47:25Z
2022-03-02T08:48:53Z,42.805,6.029,13.2996,4.60036,2470.646,2022-3-02T10:50:28Z
2022-03-02T08:51:56Z,42.805,6.029,13.2998,4.60031,2470.637,2022-3-02T10:53:31Z
2022-03-02T08:54:59Z,42.805,6.029,13.2998,4.60031,2470.624,2022-3-02T10:56:34Z
2022-03-02T08:58:02Z,42.805,6.029,13.3000,4.60035,2470.637,2022-3-02T10:59:37Z
2022-03-02T09:01:05Z,42.805,6.029,13.2998,4.60036,2470.614,2022-3-02T11:02:40Z
2022-03-02T09:04:09Z,42.805,6.029,13.2997,4.60029,2470.624,2022-3-02T11:05:43Z
2022-03-02T09:07:12Z,42.805,6.029,13.3000,4.60031,2470.637,2022-3-02T11:08:47Z
2022-03-02T09:10:15Z,42.805,6.029,13.2996,4.60033,2470.614,2022-3-02T11:11:50Z
2022-03-02T09:13:18Z,42.805,6.029,13.3001,4.60033,2470.6,2022-3-02T11:14:53Z
2022-03-02T09:16:21Z,42.805,6.029,13.3003,4.60035,2470.577,2022-3-02T11:17:56Z
2022-03-02T09:19:24Z,42.805,6.029,13.3004,4.60033,2470.6,2022-3-02T11:20:59Z
2022-03-02T09:22:27Z,42.805,6.029,13.3034,4.60073,2470.6,2022-3-02T11:24:02Z
2022-03-02T09:25:30Z,42.805,6.029,13.3036,4.60087,2470.637,2022-3-02T11:27:05Z
2022-03-02T09:28:34Z,42.805,6.029,13.3023,4.60102,2470.591,2022-3-02T11:30:08Z
2022-03-02T09:31:37Z,42.805,6.029,13.3051,4.60080,2470.6,2022-3-02T11:33:12Z
2022-03-02T09:34:40Z,42.805,6.029,13.3023,4.60096,2470.6,2022-3-02T11:36:15Z
2022-03-02T09:37:43Z,42.805,6.029,13.3024,4.60092,2470.614,2022-3-02T11:39:18Z
2022-03-02T09:40:46Z,42.805,6.029,13.3020,4.60087,2470.591,2022-3-02T11:42:21Z
2022-03-02T09:43:49Z,42.805,6.029,13.3027,4.60073,2470.614,2022-3-02T11:45:24Z
2022-03-02T09:46:52Z,42.805,6.029,13.3033,4.60055,2470.567,2022-3-02T11:48:27Z
2022-03-02T09:49:55Z,42.805,6.029,13.3026,4.60059,2470.577,2022-3-02T11:51:30Z
2022-03-02T09:52:59Z,42.805,6.029,13.3020,4.60067,2470.614,2022-3-02T11:54:33Z
2022-03-02T09:56:02Z,42.805,6.029,13.3033,4.60057,2470.577,2022-3-02T11:57:37Z
2022-03-02T09:59:05Z,42.805,6.029,13.3029,4.60081,2470.553,2022-3-02T12:00:40Z
2022-03-02T10:02:08Z,42.805,6.029,13.3036,4.60086,2470.591,2022-3-02T12:03:43Z
2022-03-02T10:05:11Z,42.805,6.029,13.3036,4.60054,2470.591,2022-3-02T12:06:46Z
2022-03-02T10:08:14Z,42.805,6.029,13.3033,4.60067,2470.591,2022-3-02T12:09:49Z
2022-03-02T10:11:17Z,42.805,6.029,13.3043,4.60092,2470.591,2022-3-02T12:12:52Z
2022-03-02T10:14:20Z,42.805,6.029,13.3024,4.60072,2470.591,2022-3-02T12:15:55Z
2022-03-02T10:17:24Z,42.805,6.029,13.3019,4.60061,2470.577,2022-3-02T12:18:58Z
2022-03-02T10:20:27Z,42.805,6.029,13.3014,4.60098,2470.544,2022-3-02T12:22:01Z
2022-03-02T10:23:30Z,42.805,6.029,13.3026,4.60091,2470.591,2022-3-02T12:25:05Z
2022-03-02T10:26:33Z,42.805,6.029,13.3029,4.60100,2470.544,2022-3-02T12:28:08Z
2022-03-02T10:29:36Z,42.805,6.029,13.3014,4.60112,2470.553,2022-3-02T12:31:11Z
2022-03-02T10:32:39Z,42.805,6.029,13.3019,4.60090,2470.577,2022-3-02T12:34:14Z
2022-03-02T10:35:42Z,42.805,6.029,13.3022,4.60090,2470.544,2022-3-02T12:37:17Z
2022-03-02T10:38:45Z,42.805,6.029,13.3022,4.60089,2470.493,2022-3-02T12:40:20Z
2022-03-02T10:41:49Z,42.805,6.029,13.3030,4.60077,2470.53,2022-3-02T12:43:23Z
2022-03-02T10:44:52Z,42.805,6.029,13.3029,4.60092,2470.53,2022-3-02T12:46:26Z
2022-03-02T10:47:55Z,42.805,6.029,13.3016,4.60089,2470.507,2022-3-02T12:49:30Z
2022-03-02T10:50:58Z,42.805,6.029,13.3046,4.60116,2470.544,2022-3-02T12:52:33Z
2022-03-02T10:54:01Z,42.805,6.029,13.3021,4.60087,2470.544,2022-3-02T12:55:36Z
2022-03-02T10:57:04Z,42.805,6.029,13.3024,4.60104,2470.507,2022-3-02T12:58:39Z
2022-03-02T11:00:07Z,42.805,6.029,13.3026,4.60111,2470.497,2022-3-02T13:01:42Z
2022-03-02T11:03:10Z,42.805,6.029,13.3015,4.60102,2470.544,2022-3-02T13:04:45Z
2022-03-02T11:06:14Z,42.805,6.029,13.3025,4.60110,2470.507,2022-3-02T13:07:48Z
2022-03-02T11:09:17Z,42.805,6.029,13.3026,4.60103,2470.52,2022-3-02T13:10:51Z
2022-03-02T11:12:20Z,42.805,6.029,13.3034,4.60086,2470.52,2022-3-02T13:13:55Z
2022-03-02T11:15:23Z,42.805,6.029,13.3021,4.60123,2470.507,2022-3-02T13:16:58Z
2022-03-02T11:18:26Z,42.805,6.029,13.3028,4.60062,2470.46,2022-3-02T13:20:01Z
2022-03-02T11:21:29Z,42.805,6.029,13.3031,4.60133,2470.483,2022-3-02T13:23:04Z
2022-03-02T11:24:32Z,42.805,6.029,13.3046,4.60088,2470.497,2022-3-02T13:26:07Z
2022-03-02T11:27:35Z,42.805,6.029,13.3089,4.60077,2470.474,2022-3-02T13:29:10Z
2022-03-02T11:30:38Z,42.805,6.029,13.3071,4.60091,2470.497,2022-3-02T13:32:13Z
2022-03-02T11:33:42Z,42.805,6.029,13.3063,4.60074,2470.46,2022-3-02T13:35:16Z
2022-03-02T11:36:45Z,42.805,6.029,13.3068,4.60081,2470.45,2022-3-02T13:38:20Z
2022-03-02T11:39:48Z,42.805,6.029,13.3061,4.60109,2470.46,2022-3-02T13:41:23Z
2022-03-02T11:42:51Z,42.805,6.029,13.3061,4.60110,2470.474,2022-3-02T13:44:26Z
2022-03-02T11:45:54Z,42.805,6.029,13.3078,4.60081,2470.45,2022-3-02T13:47:29Z
2022-03-02T11:48:57Z,42.805,6.029,13.3049,4.60067,2470.45,2022-3-02T13:50:32Z
2022-03-02T11:52:00Z,42.805,6.029,13.3057,4.60089,2470.437,2022-3-02T13:53:35Z
2022-03-02T11:55:03Z,42.805,6.029,13.3056,4.60103,2470.45,2022-3-02T13:56:38Z
2022-03-02T11:58:07Z,42.805,6.029,13.3066,4.60087,2470.483,2022-3-02T13:59:41Z
2022-03-02T12:01:10Z,42.805,6.029,13.3078,4.60092,2470.45,2022-3-02T14:02:45Z
2022-03-02T12:04:13Z,42.805,6.029,13.3024,4.60084,2470.437,2022-3-02T14:05:48Z
2022-03-02T12:07:16Z,42.805,6.029,13.3009,4.60104,2470.45,2022-3-02T14:08:51Z
2022-03-02T12:10:19Z,42.805,6.029,13.3007,4.60114,2470.413,2022-3-02T14:11:54Z
2022-03-02T12:13:22Z,42.805,6.029,13.3014,4.60076,2470.474,2022-3-02T14:14:57Z
2022-03-02T12:16:25Z,42.805,6.029,13.3014,4.60114,2470.474,2022-3-02T14:18:00Z
2022-03-02T12:19:28Z,42.805,6.029,13.3070,4.60072,2470.45,2022-3-02T14:21:03Z
2022-03-02T12:22:32Z,42.805,6.029,13.3023,4.60064,2470.45,2022-3-02T14:24:06Z
2022-03-02T12:25:35Z,42.805,6.029,13.3017,4.60063,2470.437,2022-3-02T14:27:10Z
2022-03-02T12:28:38Z,42.805,6.029,13.3019,4.60098,2470.474,2022-3-02T14:30:13Z
2022-03-02T12:31:41Z,42.805,6.029,13.3001,4.60094,2470.404,2022-3-02T14:33:16Z
2022-03-02T12:34:44Z,42.805,6.029,13.3005,4.60114,2470.413,2022-3-02T14:36:19Z
2022-03-02T12:37:47Z,42.805,6.029,13.3009,4.60064,2470.404,2022-3-02T14:39:22Z
2022-03-02T12:40:50Z,42.805,6.029,13.3009,4.60054,2470.404,2022-3-02T14:42:25Z
2022-03-02T12:43:53Z,42.805,6.029,13.3031,4.60081,2470.413,2022-3-02T14:45:28Z
2022-03-02T12:46:57Z,42.805,6.029,13.3000,4.60117,2470.404,2022-3-02T14:48:31Z
2022-03-02T12:50:00Z,42.805,6.029,13.2998,4.60085,2470.413,2022-3-02T14:51:34Z
2022-03-02T12:53:03Z,42.805,6.029,13.2998,4.60078,2470.366,2022-3-02T14:54:38Z
2022-03-02T12:56:06Z,42.805,6.029,13.3000,4.60068,2470.413,2022-3-02T14:57:41Z
2022-03-02T12:59:09Z,42.805,6.029,13.3001,4.60057,2470.427,2022-3-02T15:00:44Z
2022-03-02T13:02:12Z,42.805,6.029,13.3001,4.60077,2470.39,2022-3-02T15:03:47Z
2022-03-02T13:05:15Z,42.805,6.029,13.2996,4.60063,2470.39,2022-3-02T15:06:50Z
2022-03-02T13:08:18Z,42.805,6.029,13.2999,4.60056,2470.404,2022-3-02T15:09:53Z
2022-03-02T13:11:22Z,42.805,6.029,13.3000,4.60052,2470.427,2022-3-02T15:12:56Z
2022-03-02T13:14:25Z,42.805,6.029,13.3001,4.60051,2470.404,2022-3-02T15:15:59Z
2022-03-02T13:17:28Z,42.805,6.029,13.2998,4.60050,2470.366,2022-3-02T15:19:03Z
2022-03-02T13:20:31Z,42.805,6.029,13.3000,4.60043,2470.413,2022-3-02T15:22:06Z
2022-03-02T13:23:34Z,42.805,6.029,13.2997,4.60042,2470.366,2022-3-02T15:25:09Z
2022-03-02T13:26:37Z,42.805,6.029,13.3001,4.60043,2470.39,2022-3-02T15:28:12Z
2022-03-02T13:29:40Z,42.805,6.029,13.2996,4.60045,2470.404,2022-3-02T15:31:15Z
2022-03-02T13:32:43Z,42.805,6.029,13.2999,4.60036,2470.366,2022-3-02T15:34:18Z
2022-03-02T13:35:46Z,42.805,6.029,13.2998,4.60041,2470.366,2022-3-02T15:37:21Z
2022-03-02T13:38:50Z,42.805,6.029,13.2998,4.60035,2470.404,2022-3-02T15:40:24Z
2022-03-02T13:41:53Z,42.805,6.029,13.2998,4.60031,2470.38,2022-3-02T15:43:28Z
2022-03-02T13:44:56Z,42.805,6.029,13.3000,4.60031,2470.38,2022-3-02T15:46:31Z
2022-03-02T13:47:59Z,42.805,6.029,13.3000,4.60031,2470.38,2022-3-02T15:49:34Z
2022-03-02T13:51:02Z,42.805,6.029,13.2999,4.60041,2470.38,2022-3-02T15:52:37Z
2022-03-02T13:54:05Z,42.805,6.029,13.2998,4.60030,2470.38,2022-3-02T15:55:40Z
2022-03-02T13:57:08Z,42.805,6.029,13.2993,4.60032,2470.366,2022-3-02T15:58:43Z
2022-03-02T14:00:12Z,42.805,6.029,13.2998,4.60030,2470.357,2022-3-02T16:01:46Z
2022-03-02T14:03:15Z,42.805,6.029,13.2999,4.60033,2470.366,2022-3-02T16:04:49Z
2022-03-02T14:06:18Z,42.805,6.029,13.2998,4.60029,2470.343,2022-3-02T16:07:53Z
2022-03-02T14:09:21Z,42.805,6.029,13.2998,4.60029,2470.39,2022-3-02T16:10:56Z
2022-03-02T14:12:24Z,42.805,6.029,13.3001,4.60031,2470.366,2022-3-02T16:13:59Z
2022-03-02T14:15:27Z,42.805,6.029,13.3001,4.60031,2470.357,2022-3-02T16:17:02Z
2022-03-02T14:18:30Z,42.805,6.029,13.2999,4.60028,2470.343,2022-3-02T16:20:05Z
2022-03-02T14:21:33Z,42.805,6.029,13.3004,4.60029,2470.404,2022-3-02T16:23:08Z
2022-03-02T14:24:36Z,42.805,6.029,13.2999,4.60028,2470.38,2022-3-02T16:26:11Z
2022-03-02T14:27:40Z,42.805,6.029,13.2998,4.60028,2470.38,2022-3-02T16:29:14Z
2022-03-02T14:30:43Z,42.805,6.029,13.3001,4.60033,2470.357,2022-3-02T16:32:18Z
2022-03-02T14:33:46Z,42.805,6.029,13.3005,4.60027,2470.366,2022-3-02T16:35:21Z
2022-03-02T14:36:49Z,42.805,6.029,13.2997,4.60029,2470.39,2022-3-02T16:38:24Z
2022-03-02T14:39:52Z,42.805,6.029,13.3003,4.60031,2470.366,2022-3-02T16:41:27Z
2022-03-02T14:42:55Z,42.805,6.029,13.2996,4.60033,2470.366,2022-3-02T16:44:30Z
2022-03-02T14:45:58Z,42.805,6.029,13.2999,4.60029,2470.366,2022-3-02T16:47:33Z
2022-03-02T14:49:01Z,42.805,6.029,13.2997,4.60027,2470.366,2022-3-02T16:50:36Z
2022-03-02T14:52:05Z,42.805,6.029,13.3000,4.60029,2470.366,2022-3-02T16:53:39Z
2022-03-02T14:55:08Z,42.805,6.029,13.2999,4.60028,2470.38,2022-3-02T16:56:43Z
2022-03-02T14:58:11Z,42.805,6.029,13.3002,4.60029,2470.366,2022-3-02T16:59:46Z
2022-03-02T15:01:14Z,42.805,6.029,13.2998,4.60026,2470.38,2022-3-02T17:02:49Z
2022-03-02T15:04:17Z,42.805,6.029,13.2998,4.60030,2470.366,2022-3-02T17:05:52Z
2022-03-02T15:07:20Z,42.805,6.029,13.2998,4.60026,2470.38,2022-3-02T17:08:55Z
2022-03-02T15:10:23Z,42.805,6.029,13.2999,4.60032,2470.343,2022-3-02T17:11:58Z
2022-03-02T15:13:26Z,42.805,6.029,13.2998,4.60025,2470.366,2022-3-02T17:15:01Z